User: anonymous   Login
Location: Dentlein
(49.1477°N, 10.4231°E)
Time: 03:16:27
(UTC+00:00)
Language:

Cosmos 1346 Rocket - Orbit

View from above orbital plane
View from above orbital plane
View from above satellite
View from above satellite

Ground track
Ground track

The orbit data is extracted from the following two-line orbital elements,

1 13121U 82027B   24194.59312900  .00005550  00000-0  27588-3 0  9994
2 13121  81.1927  27.3051 0010833 155.8295 204.3445 15.17438040306437
Epoch (UTC): 12 July 2024 14:14:06
Eccentricity: 0.0010833
inclination: 81.1927°
perigee height: 506 km
apogee height: 521 km
right ascension of ascending node: 27.3051°
argument of perigee: 155.8295°
revolutions per day: 15.17438040
mean anomaly at epoch: 204.3445°
orbit number at epoch: 30643

The dashed part of the orbit path shows where the satellite is in the earth's shadow,  

DLR